When you browse on this site, cookies collect data to enhance your experience and personalize the content and advertising you see.
Visit our Privacy Policy to learn more. By continuing to use the site, you agree to this use of cookies and data.

Previsão horária em Abbakumovo

Hoje, 24 Setembro, Quinta-feira

Tempo Temperatura Precipitação Vento Pressão Humidade
00:00 +13°C° 0 mm 2 m/s 742 mmHg 88%
01:00 +12°C° 0 mm 2 m/s 742 mmHg 87%
02:00 +12°C° 0 mm 2 m/s 742 mmHg 85%
03:00 +12°C° 0 mm 2 m/s 742 mmHg 84%
04:00 +10°C° 0 mm 2 m/s 742 mmHg 83%
05:00 +10°C° 0 mm 2 m/s 742 mmHg 83%
06:00 +12°C° 0 mm 2 m/s 742 mmHg 79%
07:00 +12°C° 0 mm 3 m/s 742 mmHg 76%
08:00 +13°C° 0 mm 3 m/s 743 mmHg 72%
09:00 +14°C° 0 mm 3 m/s 743 mmHg 68%
10:00 +17°C° 0 mm 3 m/s 743 mmHg 65%
11:00 +18°C° 0 mm 3 m/s 743 mmHg 62%
12:00 +19°C° 0 mm 3 m/s 743 mmHg 59%
13:00 +19°C° 0 mm 3 m/s 743 mmHg 57%
14:00 +20°C° 0 mm 3 m/s 743 mmHg 54%
15:00 +19°C° 0 mm 3 m/s 743 mmHg 60%
16:00 +17°C° 0 mm 3 m/s 742 mmHg 66%
17:00 +16°C° 0 mm 2 m/s 742 mmHg 72%
18:00 +15°C° 0 mm 2 m/s 742 mmHg 73%
19:00 +14°C° 0 mm 2 m/s 742 mmHg 75%
20:00 +13°C° 0 mm 2 m/s 743 mmHg 76%
21:00 +13°C° 0 mm 2 m/s 743 mmHg 78%
22:00 +12°C° 0 mm 2 m/s 743 mmHg 79%
23:00 +12°C° 0 mm 2 m/s 743 mmHg 81%

Amanhã, 25 Setembro, Sexta-feira

Tempo Temperatura Precipitação Vento Pressão Humidade
00:00 +10°C° 0 mm 2 m/s 743 mmHg 81%
01:00 +10°C° 0 mm 2 m/s 743 mmHg 82%
02:00 +10°C° 0 mm 2 m/s 743 mmHg 82%
03:00 +9°C° 0 mm 2 m/s 743 mmHg 83%
04:00 +9°C° 0 mm 2 m/s 743 mmHg 84%
05:00 +9°C° 0 mm 2 m/s 743 mmHg 85%
06:00 +10°C° 0 mm 3 m/s 742 mmHg 81%
07:00 +12°C° 0 mm 3 m/s 742 mmHg 78%
08:00 +13°C° 0 mm 3 m/s 742 mmHg 74%
09:00 +14°C° 0 mm 3 m/s 742 mmHg 71%
10:00 +17°C° 0 mm 3 m/s 742 mmHg 67%
11:00 +18°C° 0 mm 3 m/s 742 mmHg 64%
12:00 +19°C° 0 mm 4 m/s 742 mmHg 62%
13:00 +20°C° 0 mm 4 m/s 742 mmHg 60%
14:00 +21°C° 0 mm 5 m/s 742 mmHg 58%
15:00 +19°C° 0 mm 4 m/s 742 mmHg 63%
16:00 +18°C° 0 mm 4 m/s 742 mmHg 68%
17:00 +17°C° 0 mm 4 m/s 741 mmHg 73%
18:00 +15°C° 0 mm 4 m/s 742 mmHg 74%
19:00 +15°C° 0 mm 4 m/s 742 mmHg 75%
20:00 +14°C° 0 mm 4 m/s 742 mmHg 76%
21:00 +14°C° 0 mm 4 m/s 742 mmHg 75%
22:00 +13°C° 0 mm 4 m/s 742 mmHg 75%
23:00 +13°C° 0 mm 4 m/s 742 mmHg 74%

Depois de amanhã, 26 Setembro, Sábado

Tempo Temperatura Precipitação Vento Pressão Humidade
00:00 +12°C° 0 mm 4 m/s 742 mmHg 74%
01:00 +12°C° 0 mm 4 m/s 742 mmHg 75%
02:00 +12°C° 0 mm 3 m/s 742 mmHg 75%
03:00 +11°C° 0 mm 4 m/s 742 mmHg 77%
04:00 +11°C° 0 mm 4 m/s 742 mmHg 78%
05:00 +11°C° 0 mm 4 m/s 742 mmHg 80%
06:00 +12°C° 0 mm 4 m/s 742 mmHg 78%
07:00 +12°C° 0 mm 4 m/s 742 mmHg 76%
08:00 +13°C° 0 mm 4 m/s 743 mmHg 74%
09:00 +15°C° 0 mm 5 m/s 743 mmHg 69%
10:00 +16°C° 0 mm 5 m/s 743 mmHg 65%
11:00 +19°C° 0 mm 5 m/s 743 mmHg 61%
12:00 +20°C° 0 mm 5 m/s 743 mmHg 60%
13:00 +20°C° 0 mm 5 m/s 743 mmHg 58%
14:00 +21°C° 0 mm 5 m/s 743 mmHg 57%
15:00 +20°C° 0 mm 5 m/s 744 mmHg 61%
16:00 +19°C° 0 mm 4 m/s 744 mmHg 66%
17:00 +17°C° 0 mm 4 m/s 744 mmHg 71%
18:00 +15°C° 0 mm 4 m/s 744 mmHg 72%
19:00 +15°C° 0 mm 4 m/s 744 mmHg 73%
20:00 +14°C° 0 mm 4 m/s 744 mmHg 74%
21:00 +13°C° 0 mm 4 m/s 744 mmHg 75%
22:00 +13°C° 0 mm 4 m/s 744 mmHg 76%
23:00 +12°C° 0 mm 4 m/s 744 mmHg 77%

27 Setembro, Domingo

Tempo Temperatura Precipitação Vento Pressão Humidade
00:00 +12°C° 0 mm 4 m/s 744 mmHg 77%
01:00 +12°C° 0 mm 4 m/s 744 mmHg 77%
02:00 +12°C° 0 mm 4 m/s 744 mmHg 77%
03:00 +11°C° 0 mm 4 m/s 744 mmHg 77%
04:00 +11°C° 0 mm 4 m/s 744 mmHg 78%
05:00 +11°C° 0 mm 4 m/s 744 mmHg 79%
06:00 +12°C° 0 mm 4 m/s 745 mmHg 76%
07:00 +13°C° 0 mm 4 m/s 745 mmHg 73%
08:00 +14°C° 0 mm 5 m/s 745 mmHg 70%
09:00 +15°C° 0 mm 5 m/s 745 mmHg 66%
10:00 +16°C° 0 mm 5 m/s 745 mmHg 61%
11:00 +17°C° 0 mm 5 m/s 745 mmHg 57%
12:00 +19°C° 0 mm 5 m/s 745 mmHg 54%
13:00 +19°C° 0 mm 5 m/s 745 mmHg 52%
14:00 +20°C° 0 mm 6 m/s 745 mmHg 50%
15:00 +17°C° 0 mm 5 m/s 745 mmHg 53%
16:00 +16°C° 0 mm 5 m/s 745 mmHg 56%
17:00 +15°C° 0 mm 5 m/s 745 mmHg 59%
18:00 +14°C° 0 mm 5 m/s 745 mmHg 58%
19:00 +13°C° 0 mm 5 m/s 745 mmHg 57%
20:00 +13°C° 0 mm 5 m/s 745 mmHg 57%
21:00 +13°C° 0 mm 5 m/s 745 mmHg 57%
22:00 +13°C° 0 mm 5 m/s 745 mmHg 57%
23:00 +12°C° 0 mm 5 m/s 745 mmHg 57%

28 Setembro, Segunda-feira

Tempo Temperatura Precipitação Vento Pressão Humidade
00:00 +12°C° 0 mm 5 m/s 745 mmHg 57%
01:00 +12°C° 0 mm 5 m/s 745 mmHg 58%
02:00 +11°C° 0 mm 4 m/s 745 mmHg 58%
03:00 +12°C° 0 mm 5 m/s 745 mmHg 58%
04:00 +12°C° 0 mm 5 m/s 745 mmHg 58%
05:00 +12°C° 0 mm 5 m/s 745 mmHg 57%
06:00 +12°C° 0.2 mm 5 m/s 745 mmHg 62%
07:00 +12°C° 0.2 mm 4 m/s 745 mmHg 67%
08:00 +11°C° 0.2 mm 4 m/s 745 mmHg 72%
09:00 +11°C° 0.5 mm 4 m/s 745 mmHg 76%
10:00 +10°C° 0.5 mm 5 m/s 745 mmHg 79%
11:00 +10°C° 0.5 mm 5 m/s 745 mmHg 83%
12:00 +12°C° 0.1 mm 5 m/s 745 mmHg 84%
13:00 +12°C° 0.1 mm 5 m/s 745 mmHg 85%
14:00 +12°C° 0.1 mm 5 m/s 745 mmHg 85%
15:00 +12°C° 0 mm 5 m/s 745 mmHg 85%
16:00 +12°C° 0 mm 4 m/s 745 mmHg 85%
17:00 +12°C° 0 mm 4 m/s 744 mmHg 85%
18:00 +11°C° 0 mm 4 m/s 745 mmHg 85%
19:00 +11°C° 0 mm 4 m/s 745 mmHg 85%
20:00 +10°C° 0 mm 4 m/s 745 mmHg 85%
21:00 +10°C° 0 mm 4 m/s 745 mmHg 84%
22:00 +10°C° 0 mm 3 m/s 745 mmHg 84%
23:00 +10°C° 0 mm 3 m/s 745 mmHg 83%

29 Setembro, Terça-feira

Tempo Temperatura Precipitação Vento Pressão Humidade
00:00 +10°C° 0 mm 3 m/s 745 mmHg 83%
01:00 +10°C° 0 mm 3 m/s 745 mmHg 83%
02:00 +9°C° 0 mm 3 m/s 745 mmHg 83%
03:00 +9°C° 0 mm 3 m/s 745 mmHg 82%
04:00 +8°C° 0 mm 4 m/s 745 mmHg 82%
05:00 +8°C° 0 mm 4 m/s 745 mmHg 81%
06:00 +10°C° 0 mm 4 m/s 745 mmHg 82%
07:00 +10°C° 0 mm 5 m/s 745 mmHg 83%
08:00 +12°C° 0 mm 5 m/s 745 mmHg 83%
09:00 +12°C° 0 mm 5 m/s 745 mmHg 84%
10:00 +13°C° 0 mm 5 m/s 745 mmHg 85%
11:00 +13°C° 0 mm 5 m/s 745 mmHg 85%
12:00 +14°C° 0 mm 6 m/s 745 mmHg 82%
13:00 +15°C° 0 mm 6 m/s 745 mmHg 78%
14:00 +15°C° 0 mm 6 m/s 744 mmHg 75%
15:00 +14°C° 0 mm 6 m/s 744 mmHg 73%
16:00 +13°C° 0 mm 5 m/s 744 mmHg 71%
17:00 +12°C° 0 mm 5 m/s 744 mmHg 69%
18:00 +12°C° 0 mm 5 m/s 744 mmHg 67%
19:00 +10°C° 0 mm 5 m/s 744 mmHg 66%
20:00 +10°C° 0 mm 5 m/s 744 mmHg 65%
21:00 +11°C° 0 mm 4 m/s 744 mmHg 64%
22:00 +11°C° 0 mm 4 m/s 744 mmHg 63%
23:00 +11°C° 0 mm 4 m/s 744 mmHg 62%
Mostrar mais